Torna al catalogo

LEMUR-2 POLO-11

AttivoScienzaSSO
NORAD 68493·PAYLOAD·🇱🇺 Luxembourg

Lanciato Mar 30, 2026 da Vandenberg Space Force Base

Loading…

Prossimi Passaggi (prossime 24 ore)

TLE

AggiornatoSource: Space-Track

Epoca: Sep 14, 2026, 14:20 UTC

1 68493U 26067CF  26257.59739414  .00004252  00000-0  42019-3 0  9997
2 68493  97.7746 214.6139 0005246  85.3129 274.8689 14.92438237 25052

Traccia LEMUR-2 POLO-11 in tempo reale con AllMySat

Download on the App Store